Helicity
15 46 25 39 43 18 17 29 33 141 158 111 70 -121 -81 164 200 158 93 59 65 -2 4 48 89 97 102 102 109 106 90 78 66 56 48 42 36 24 10 0 0 3 10 14 14 15 18 15 11
53 59 35 42 40 8 33 68 186 180 100 50 69 16 106 74 58 74 38 81 47 14 25 30 61 74 88 94 98 103 103 107 99 85 69 56 45 35 24 13 -1 -3 7 10 10 10 15 12 6
65 63 60 67 9 16 5 55 129 87 133 131 86 171 84 78 94 64 26 18 9 18 26 24 53 74 84 83 85 88 96 108 112 102 85 67 58 44 34 22 17 -1 1 7 9 8 19 12 8
65 43 55 59 9 10 17 38 73 94 100 147 89 172 94 100 79 40 1 14 30 19 36 43 64 75 68 69 71 77 77 85 90 100 92 82 62 53 43 35 31 21 11 8 9 8 16 13 8
85 53 67 53 43 53 109 182 119 146 232 254 184 160 142 118 71 38 44 33 66 79 76 76 79 73 82 86 87 89 97 96 95 112 97 68 56 47 52 43 26 23 21 23 21 19 14 31 22
66 58 71 45 73 45 209 189 154 344 380 295 301 193 118 58 44 70 78 67 72 85 85 92 110 80 82 93 106 113 121 122 108 129 151 138 83 62 50 57 54 35 23 24 25 24 20 32 31
78 131 19 -12 72 41 146 195 287 402 322 378 178 238 138 86 94 85 55 59 78 101 104 106 122 138 103 108 108 123 132 110 113 143 182 165 152 139 100 57 52 44 42 21 30 36 34 28 28
49 49 -1 12 43 11 231 273 268 263 292 215 230 200 159 93 79 52 33 55 80 100 113 119 142 176 152 126 124 138 127 98 88 119 139 173 191 162 159 138 120 64 58 66 35 26 28 33 38
55 56 61 75 48 105 156 155 174 189 269 268 259 153 133 71 101 66 76 125 129 112 104 118 155 199 216 192 159 116 144 127 72 106 131 151 140 120 116 163 154 162 162 110 96 67 50 26 37
73 63 107 -3 45 102 38 74 66 111 153 232 261 209 143 85 101 186 179 142 133 147 109 117 158 194 208 179 153 118 127 125 40 57 86 111 112 91 103 109 139 156 179 180 166 151 136 82 56
30 26 62 14 41 85 166 147 155 150 162 126 151 139 169 240 280 273 182 126 132 144 139 148 164 180 162 144 113 98 95 117 57 38 41 70 69 74 80 80 120 142 153 92 119 135 136 151 111
70 31 60 49 7 69 94 112 270 304 202 208 186 181 240 279 258 256 240 175 140 153 164 165 196 196 129 103 90 86 107 110 55 2 36 54 34 54 74 92 103 57 67 63 56 40 50 70 106
96 49 111 85 28 30 94 161 206 306 345 341 256 224 234 266 288 256 245 220 141 150 193 183 197 179 136 131 95 112 141 114 83 40 52 21 27 68 89 107 81 48 44 35 42 46 32 42 65
55 44 49 93 91 47 77 92 209 211 274 255 252 240 210 212 235 257 260 232 193 156 183 168 177 168 139 134 108 110 147 129 105 41 69 44 14 41 72 83 66 79 86 76 55 54 38 32 41
60 37 43 13 53 71 164 51 151 172 184 188 160 184 264 300 295 280 208 214 180 152 173 172 149 162 140 138 112 114 139 127 90 54 83 51 35 79 81 61 69 98 101 90 68 61 63 62 69
53 58 79 61 46 72 313 121 141 243 346 218 200 237 224 203 260 258 223 211 213 188 169 173 150 159 132 129 113 117 131 103 71 38 34 41 44 91 55 48 52 53 74 75 80 87 93 86 74
72 80 114 83 56 212 360 271 161 217 267 216 259 297 262 281 285 228 251 257 217 199 181 157 148 161 142 153 156 169 164 109 68 43 42 46 38 56 29 64 75 68 55 44 48 68 71 84 76
101 151 139 90 49 162 178 162 158 193 268 247 276 338 310 341 281 255 331 293 204 188 196 156 147 193 198 197 187 214 214 160 84 41 41 51 49 54 21 49 62 60 58 61 56 51 41 22 38
107 127 133 6 24 58 62 98 179 248 279 249 360 428 391 379 415 436 323 250 219 192 180 168 161 191 212 221 164 179 182 158 111 79 81 55 58 40 26 41 48 33 18 24 32 20 42 17 19
167 207 140 60 -20 68 88 132 95 260 236 314 411 464 483 678 626 466 304 274 214 191 209 183 137 162 227 231 160 177 171 164 132 101 128 95 67 52 20 20 30 43 35 39 29 14 -5 -14 -7
185 188 167 155 98 36 138 150 130 141 227 324 418 481 626 669 608 448 348 260 248 226 237 219 180 159 183 169 191 197 174 139 133 115 116 119 86 22 8 9 27 33 30 29 35 26 30 22 -2
205 184 195 241 218 199 239 144 120 134 121 76 300 523 633 600 518 400 362 302 285 202 243 244 211 170 139 170 160 155 121 115 97 107 89 113 89 39 21 16 49 56 45 56 63 60 51 36 34
225 214 216 226 219 157 130 204 205 72 66 120 211 410 557 638 606 503 451 425 310 256 217 226 179 150 141 137 111 98 95 97 86 99 116 107 79 54 15 31 50 48 38 48 57 62 63 28 16
209 191 198 121 141 212 163 118 119 110 81 58 230 519 711 785 746 710 519 452 321 255 204 217 170 138 154 151 99 101 102 102 78 85 103 75 59 54 15 51 56 57 50 53 46 43 41 38 30
169 174 212 206 245 204 98 141 122 97 116 31 92 608 749 823 806 645 444 348 285 197 208 181 188 137 153 172 103 95 109 110 85 77 71 63 51 45 41 50 59 47 54 56 53 51 56 45 38
115 93 145 160 188 133 79 180 82 32 91 256 607 805 777 684 597 517 386 327 261 264 239 230 173 132 148 183 126 106 108 90 74 65 54 61 59 59 67 65 54 55 50 55 58 46 43 45 39
169 102 54 130 113 168 122 116 158 189 192 213 324 463 457 431 420 358 372 397 337 276 194 183 150 133 153 193 152 124 117 118 82 68 63 75 76 82 71 63 57 52 58 64 58 47 58 54 46
101 64 136 143 194 198 157 131 100 165 81 105 147 178 253 322 444 582 486 415 342 283 157 182 147 135 140 177 206 136 122 115 74 65 75 96 72 71 65 67 56 55 67 70 79 61 59 53 42
130 132 125 125 180 206 173 138 89 54 52 57 48 164 258 350 413 453 370 353 291 248 169 139 131 127 130 133 147 130 112 110 94 62 65 65 62 68 69 62 64 62 77 78 76 66 69 64 59
112 73 80 129 120 117 165 157 82 183 147 104 168 206 271 408 436 381 333 271 254 202 141 119 104 110 101 96 108 87 81 97 94 53 45 42 53 47 41 51 69 58 71 77 77 65 59 54 61
Wind_Speed
57 54 50 39 30 26 30 27 37 22 28 32 32 28 28 28 24 27 22 24 28 29 32 35 38 40 41 43 44 44 44 44 42 41 40 39 38 38 38 39 39 39 40 41 42 43 43 44 43
53 51 37 35 26 28 41 32 28 31 26 26 30 28 34 30 28 23 20 27 28 31 35 36 38 40 42 44 45 45 45 45 44 43 41 39 37 37 37 38 39 40 40 42 43 44 44 44 44
52 34 37 29 26 25 36 29 25 28 31 29 26 36 33 31 28 22 24 25 25 33 35 36 38 42 43 45 45 46 47 47 46 45 43 42 41 39 38 39 39 40 40 43 44 45 44 46 46
42 33 33 30 32 36 29 25 22 24 30 33 25 35 33 35 26 21 21 24 28 31 35 37 40 43 43 44 46 48 48 48 47 46 45 45 44 42 41 40 40 39 39 40 41 42 41 44 45
41 32 32 31 47 53 33 30 22 26 31 29 24 28 33 28 22 21 22 24 27 31 35 38 40 42 43 44 47 48 49 50 49 49 48 48 47 46 45 43 42 43 41 39 37 36 37 34 37
35 31 35 42 46 35 27 33 32 24 25 26 29 29 30 21 17 20 22 24 27 30 34 38 40 40 44 45 47 48 49 51 50 52 51 51 48 48 48 46 48 49 48 47 42 38 37 34 33
30 41 43 58 59 50 30 25 32 21 27 36 22 31 23 20 15 18 20 23 27 32 35 39 41 43 42 45 46 49 50 50 51 53 53 51 51 51 51 49 49 53 57 49 43 43 41 37 34
35 37 40 41 58 39 25 25 24 28 31 29 30 26 23 11 11 15 19 24 28 33 36 40 41 45 45 45 46 48 50 51 52 54 54 53 53 53 54 53 55 53 55 56 51 42 41 39 36
38 30 30 44 45 26 28 27 31 29 28 35 36 28 16 11 12 13 17 24 29 33 38 40 42 44 46 46 46 48 50 52 51 54 55 54 53 54 54 55 57 58 59 58 58 58 59 49 48
23 25 31 41 37 36 22 26 21 28 30 32 29 24 16 10 8 13 20 26 30 35 39 42 43 44 45 44 47 48 51 52 50 54 56 55 55 55 56 57 59 60 61 62 62 60 61 59 60
27 26 43 39 41 42 41 23 23 16 33 25 18 14 14 14 16 21 27 29 31 34 39 43 44 45 45 44 45 47 49 51 51 54 56 57 55 57 57 57 59 60 61 59 61 62 63 65 65
37 51 43 40 39 41 38 21 27 26 30 18 16 16 16 17 22 26 29 31 34 38 41 43 44 44 44 44 45 47 48 51 52 54 57 58 57 59 59 59 60 57 61 63 64 65 68 68 68
46 48 54 38 32 37 36 32 19 21 23 20 18 19 17 20 25 27 30 33 35 39 41 41 44 44 43 44 44 48 49 50 51 52 57 57 59 60 59 60 59 62 64 65 66 68 70 70 70
53 54 57 58 52 30 29 21 22 19 16 18 16 18 21 21 24 29 32 36 37 37 38 37 42 44 44 45 45 48 49 50 50 52 57 56 57 61 59 60 61 65 65 66 66 68 70 71 71
52 53 57 36 27 21 22 24 31 9 13 17 16 16 20 25 25 28 30 33 32 35 36 39 41 43 44 45 45 47 48 48 49 52 56 57 58 62 61 59 62 66 66 66 66 68 69 70 71
44 44 41 38 24 20 16 30 40 9 12 14 15 17 22 25 27 30 31 31 33 36 37 38 41 44 43 44 44 45 47 47 48 51 54 56 57 62 59 61 63 65 65 67 68 71 72 72 74
39 44 40 44 49 29 21 39 26 14 17 18 17 16 19 23 25 27 30 32 33 36 38 39 42 44 45 44 44 47 48 48 47 51 55 57 58 60 60 62 64 65 65 66 69 71 73 77 78
45 48 51 52 49 25 24 37 24 20 21 24 21 22 25 25 25 23 26 31 33 36 38 38 39 44 45 47 48 50 50 49 49 51 54 57 59 60 60 63 64 66 67 69 70 73 75 76 81
51 49 51 49 48 43 39 40 31 28 30 30 31 28 27 26 22 21 24 30 33 38 39 41 41 44 46 51 50 51 52 51 51 50 55 57 58 57 61 63 64 65 66 68 71 72 77 77 84
53 57 57 56 59 65 60 58 50 35 36 35 33 30 26 26 22 24 25 30 36 36 39 40 42 45 48 49 49 48 47 48 50 53 57 58 58 57 60 65 65 66 67 69 72 74 76 75 80
57 58 61 67 70 68 75 79 66 44 44 41 39 32 27 24 22 23 27 30 32 35 40 41 42 45 48 50 49 48 47 50 55 57 57 59 57 56 61 64 64 66 66 69 73 74 76 78 75
66 57 64 66 70 74 61 85 68 65 69 49 36 32 27 23 21 22 25 29 31 33 36 40 41 46 48 49 48 48 48 50 52 55 56 58 58 57 63 65 66 67 67 71 73 73 73 74 77
63 55 56 61 69 76 59 64 71 85 84 59 38 31 27 23 21 24 23 25 30 34 38 42 41 45 47 48 46 46 47 49 50 53 57 57 58 59 64 65 66 68 69 71 73 73 72 69 71
50 54 60 60 58 77 65 57 68 68 72 64 34 24 17 17 20 23 23 28 34 39 40 42 42 43 45 47 46 47 48 50 52 54 57 58 58 61 64 66 68 67 70 71 71 71 69 69 70
43 50 65 66 56 67 55 60 54 55 64 57 37 12 7 10 15 22 29 35 40 43 45 42 39 42 44 46 45 47 49 49 51 53 54 58 60 62 66 68 69 70 71 70 70 69 70 71 72
37 34 48 68 62 74 68 58 62 53 56 46 25 12 12 16 21 27 31 37 42 42 40 42 39 41 43 47 46 47 49 50 50 50 53 58 60 63 67 68 68 70 71 71 70 68 69 71 71
36 47 46 58 64 70 62 59 55 45 43 38 26 15 13 18 24 29 33 38 40 38 36 37 38 40 42 46 46 47 48 49 48 51 55 59 61 64 66 66 68 69 71 71 70 68 71 71 72
35 41 50 46 71 79 67 68 65 51 45 34 26 22 22 24 27 34 34 38 35 38 35 34 35 39 42 44 47 48 49 49 48 51 57 60 60 63 64 66 68 69 71 70 69 68 69 69 70
47 50 45 50 47 70 79 65 39 41 36 37 30 27 26 28 32 33 36 36 36 33 33 33 35 37 39 43 44 46 47 49 48 52 57 57 58 62 63 65 69 68 69 68 68 67 68 68 69
56 55 52 60 69 65 67 72 39 38 35 34 36 31 31 31 30 28 28 29 31 32 33 32 34 36 38 39 39 42 46 48 50 50 54 53 56 60 60 64 69 66 66 66 66 66 66 66 69
Wind_Direction
298 296 301 306 349 351 342 344 334 5 359 19 16 26 41 1 339 333 26 11 22 16 11 11 9 11 8 6 1 0 1 1 360 358 360 0 2 5 5 359 355 347 344 344 338 333 332 333 336
303 301 320 315 344 338 333 355 12 20 44 28 8 5 344 353 5 12 9 4 24 22 13 11 11 10 7 5 2 358 358 358 356 353 354 354 355 355 355 353 349 342 340 336 334 327 327 321 320
303 337 318 325 326 324 335 357 21 23 10 354 3 350 342 338 350 360 354 359 21 16 14 11 9 7 4 2 3 3 1 358 353 347 344 344 344 344 346 343 343 340 338 332 330 325 333 324 309
324 336 322 320 311 313 334 357 17 2 3 356 15 356 352 344 351 355 1 2 5 8 7 5 5 4 6 6 4 4 4 358 354 347 342 335 337 339 338 338 339 340 339 341 342 340 343 336 329
325 329 323 320 292 302 314 322 349 340 340 349 360 355 344 355 26 24 12 8 4 2 3 6 9 10 10 7 6 6 5 2 356 348 343 337 332 332 331 332 333 331 333 339 342 345 347 353 350
327 330 318 308 304 330 322 315 319 351 359 5 10 359 347 12 32 25 12 10 8 6 3 2 2 8 8 8 6 4 4 2 359 350 344 338 340 332 330 329 324 320 320 321 328 335 337 342 345
332 319 310 285 290 307 311 328 329 352 353 348 1 342 352 357 44 29 22 18 11 5 1 359 357 357 2 4 4 3 2 2 359 352 346 344 341 336 334 333 330 323 315 318 322 323 326 331 334
330 322 311 316 312 320 323 325 346 346 340 349 342 339 334 4 51 43 30 21 12 3 359 355 352 350 352 357 360 0 359 359 358 354 349 346 341 336 333 331 325 328 324 320 318 323 324 324 326
316 328 328 325 336 335 334 330 341 356 345 337 336 342 18 63 65 34 19 1 352 351 351 349 346 345 348 352 354 357 354 354 356 352 349 346 343 340 335 328 326 323 320 322 321 317 311 315 315
332 326 324 332 339 338 345 336 346 335 339 343 348 4 19 25 4 354 343 338 338 336 341 343 342 343 346 350 351 353 351 350 354 352 348 345 342 341 336 330 324 322 322 319 319 320 316 317 312
333 321 317 326 326 328 335 353 349 359 334 345 346 358 354 353 347 337 334 335 335 336 337 339 340 342 345 348 351 352 351 349 351 348 347 342 342 338 337 334 329 325 323 325 322 319 316 312 311
314 298 317 323 320 320 333 353 351 352 338 7 2 360 356 341 329 326 328 330 329 329 331 336 338 340 344 347 351 351 350 348 349 350 347 343 341 338 334 333 331 333 328 322 320 317 315 314 312
315 318 303 329 331 322 322 336 343 1 3 7 353 338 341 335 330 328 327 328 328 327 330 335 336 338 342 344 348 347 345 347 349 352 348 347 342 339 336 333 334 332 328 326 322 318 315 315 313
312 314 306 301 312 325 324 332 336 336 348 347 343 331 325 325 321 322 322 321 324 329 332 338 339 338 340 340 345 344 343 347 349 351 350 349 347 342 338 336 336 332 329 326 324 321 318 315 315
319 317 313 317 312 308 320 313 318 319 334 330 327 331 329 328 328 323 323 323 327 330 333 334 336 337 340 341 345 345 343 346 347 349 349 350 349 345 342 343 340 336 334 333 332 328 324 320 317
325 324 323 331 324 292 295 309 317 315 314 319 316 320 322 321 322 325 325 325 327 328 330 334 336 334 339 341 344 346 344 345 347 349 350 349 350 345 346 345 342 340 339 338 336 333 330 326 322
326 319 321 325 322 312 293 310 323 324 320 311 303 306 315 321 324 324 324 326 329 329 328 331 334 332 334 339 342 342 343 342 345 347 346 346 347 346 346 343 341 341 341 341 339 335 333 327 324
320 320 324 324 341 338 311 310 306 299 298 296 293 296 302 305 314 325 333 335 335 333 332 333 336 333 335 334 336 336 336 340 344 346 345 345 344 345 345 342 341 341 340 337 337 333 332 329 324
315 315 315 313 328 326 312 309 298 292 295 294 287 282 292 297 312 325 329 329 332 331 331 332 333 334 333 330 332 331 330 333 339 345 344 344 343 345 345 343 342 342 340 338 337 336 333 331 328
314 312 311 310 310 312 313 308 306 290 289 285 282 280 286 299 305 322 334 334 331 330 330 332 334 335 334 334 333 332 333 338 339 343 341 343 344 345 344 341 339 340 340 339 337 335 332 332 333
309 310 310 308 310 306 308 302 306 298 298 293 287 274 276 276 290 306 320 329 333 331 330 331 334 336 335 335 334 332 332 332 333 335 338 339 344 346 344 342 341 340 339 336 334 334 332 330 333
305 312 312 312 311 305 317 301 304 307 307 304 284 273 269 273 292 312 326 333 342 341 336 334 334 334 335 335 336 336 333 330 334 334 337 337 340 342 343 341 341 338 337 335 334 334 333 330 327
305 316 314 312 308 307 310 306 304 306 305 305 288 272 269 271 286 307 326 343 342 343 339 335 336 334 334 336 338 337 335 334 336 336 335 336 338 340 342 340 338 337 336 336 334 333 333 333 330
317 315 314 311 308 300 306 306 310 313 313 317 299 276 265 275 301 322 338 343 343 343 338 334 334 336 334 335 337 335 335 334 334 335 334 335 337 337 340 340 339 339 338 337 335 334 334 333 331
313 312 309 307 303 303 318 312 312 325 325 323 319 290 294 316 323 327 328 331 334 334 332 335 335 334 333 336 336 336 336 339 339 338 336 336 337 338 339 339 337 337 338 337 336 335 334 332 330
312 309 307 306 307 309 314 311 318 328 334 343 352 345 341 332 324 322 325 328 331 333 335 337 342 338 334 333 336 338 338 338 341 343 344 339 338 337 337 337 338 338 337 336 336 335 334 332 330
311 306 306 305 307 307 311 310 321 334 341 351 355 358 336 327 323 321 322 325 329 332 334 337 340 341 338 336 338 340 342 345 346 346 345 342 341 337 337 338 338 338 337 336 335 334 334 332 331
309 315 310 312 306 305 309 312 313 317 322 340 343 336 324 320 318 318 323 324 332 332 335 346 351 343 339 339 341 344 343 345 348 348 345 341 343 342 340 340 340 339 339 338 337 336 336 335 334
307 305 304 305 303 304 307 310 323 321 322 321 317 315 314 312 313 316 314 318 319 336 339 348 348 345 344 339 343 348 347 347 351 350 346 344 346 346 346 345 343 342 341 341 340 340 340 339 339
304 305 308 306 306 304 305 303 318 319 323 319 310 304 304 307 312 317 322 321 321 322 329 338 340 343 342 344 350 350 350 348 348 353 354 354 352 351 350 350 348 347 346 346 345 343 344 344 342